Time,TemperatureF,DewpointF,PressureIn,WindDirection,WindDirectionDegrees,WindSpeedMPH,WindSpeedGustMPH,Humidity,HourlyPrecipIn,Conditions,Clouds,dailyrainin,SoftwareType,DateUTC
2013-05-25 00:02:00,65.5,47.4,29.99,North,2,0.0,0.0,52,0.00,,BKN200,0.00,VWS V13.01,2013-05-25 06:02:00,
2013-05-25 00:07:00,65.5,47.4,29.99,North,2,2.2,2.2,52,0.00,,BKN200,0.00,VWS V13.01,2013-05-25 06:07:00,
2013-05-25 00:12:00,65.5,47.4,29.99,North,357,3.1,3.1,52,0.00,,BKN200,0.00,VWS V13.01,2013-05-25 06:12:00,
2013-05-25 00:17:00,65.5,47.9,29.99,NNW,328,0.0,2.2,53,0.00,,BKN200,0.00,VWS V13.01,2013-05-25 06:17:00,
2013-05-25 00:22:00,65.5,47.4,29.96,NNW,345,0.0,2.2,52,0.00,,BKN200,0.00,VWS V13.01,2013-05-25 06:22:00,
2013-05-25 00:27:00,65.5,47.4,29.96,NNW,344,0.0,2.7,52,0.00,,BKN200,0.00,VWS V13.01,2013-05-25 06:27:00,
2013-05-25 00:32:00,65.3,47.2,29.96,NNW,345,0.0,0.0,52,0.00,,BKN200,0.00,VWS V13.01,2013-05-25 06:32:00,
2013-05-25 00:37:00,65.1,47.6,29.96,North,350,0.0,2.7,53,0.00,,BKN200,0.00,VWS V13.01,2013-05-25 06:37:00,
2013-05-25 00:42:00,64.9,47.4,29.99,North,350,0.0,2.7,53,0.00,,BKN200,0.00,VWS V13.01,2013-05-25 06:42:00,
2013-05-25 00:47:00,64.8,47.2,29.99,North,350,0.0,0.0,53,0.00,,BKN200,0.00,VWS V13.01,2013-05-25 06:47:00,
2013-05-25 00:52:00,64.6,47.1,29.99,North,350,0.0,0.0,53,0.00,,BKN200,0.00,VWS V13.01,2013-05-25 06:52:00,
2013-05-25 00:57:00,64.4,46.9,29.99,NNW,339,0.0,2.7,53,0.00,,BKN200,0.00,VWS V13.01,2013-05-25 06:57:00,
2013-05-25 01:03:00,64.2,47.2,29.99,NNW,339,0.0,0.0,54,0.00,,BKN200,0.00,VWS V13.01,2013-05-25 07:03:00,
2013-05-25 01:08:00,63.9,47.4,29.99,NNW,339,0.0,2.2,55,0.00,,BKN200,0.00,VWS V13.01,2013-05-25 07:08:00,
2013-05-25 01:13:00,63.7,47.7,29.99,NNW,339,0.0,2.2,56,0.00,,BKN200,0.00,VWS V13.01,2013-05-25 07:13:00,
2013-05-25 01:18:00,63.5,47.5,29.99,NNW,339,0.0,0.0,56,0.00,,BKN200,0.00,VWS V13.01,2013-05-25 07:18:00,
2013-05-25 01:23:00,63.1,47.7,29.99,NNW,339,0.0,0.0,57,0.00,,BKN200,0.00,VWS V13.01,2013-05-25 07:23:00,
2013-05-25 01:28:00,63.0,48.0,29.99,NNW,339,2.7,2.7,58,0.00,,BKN200,0.00,VWS V13.01,2013-05-25 07:28:00,
2013-05-25 01:33:00,62.8,48.3,29.99,NNW,339,0.0,2.7,59,0.00,,BKN200,0.00,VWS V13.01,2013-05-25 07:33:00,
2013-05-25 01:38:00,62.6,47.6,29.99,West,270,0.0,3.1,58,0.00,,BKN200,0.00,VWS V13.01,2013-05-25 07:38:00,
2013-05-25 01:43:00,62.4,47.0,29.99,West,270,0.0,3.1,57,0.00,,BKN200,0.00,VWS V13.01,2013-05-25 07:43:00,
2013-05-25 01:48:00,62.1,46.7,29.99,West,269,0.0,0.0,57,0.00,,BKN200,0.00,VWS V13.01,2013-05-25 07:48:00,
2013-05-25 01:53:00,61.9,46.5,29.99,West,269,0.0,2.7,57,0.00,,BKN200,0.00,VWS V13.01,2013-05-25 07:53:00,
2013-05-25 01:58:00,61.9,46.5,29.99,West,270,0.0,2.7,57,0.00,,BKN200,0.00,VWS V13.01,2013-05-25 07:58:00,
2013-05-25 02:03:00,61.5,45.7,29.99,West,270,0.0,0.0,56,0.00,,BKN200,0.00,VWS V13.01,2013-05-25 08:03:00,
2013-05-25 02:08:00,61.3,45.5,29.96,West,269,0.0,0.0,56,0.00,,BKN200,0.00,VWS V13.01,2013-05-25 08:08:00,
2013-05-25 02:13:00,61.0,45.2,29.96,West,269,0.0,0.0,56,0.00,,BKN200,0.00,VWS V13.01,2013-05-25 08:13:00,
2013-05-25 02:18:00,60.6,45.3,29.96,West,270,0.0,0.0,57,0.00,,BKN200,0.00,VWS V13.01,2013-05-25 08:18:00,
2013-05-25 02:23:00,60.4,45.2,29.96,West,267,0.0,0.0,57,0.00,,BKN200,0.00,VWS V13.01,2013-05-25 08:23:00,
2013-05-25 02:28:00,60.1,44.8,29.96,West,268,0.0,0.0,57,0.00,,BKN200,0.00,VWS V13.01,2013-05-25 08:28:00,
2013-05-25 02:33:00,60.1,43.9,29.96,South,169,2.7,3.6,55,0.00,,BKN200,0.00,VWS V13.01,2013-05-25 08:33:00,
2013-05-25 02:38:00,59.9,42.7,29.96,SSE,162,2.7,3.6,53,0.00,,BKN200,0.00,VWS V13.01,2013-05-25 08:38:00,
2013-05-25 02:43:00,59.9,41.8,29.96,SSE,162,0.0,3.6,51,0.00,,BKN200,0.00,VWS V13.01,2013-05-25 08:43:00,
2013-05-25 02:48:00,59.7,41.6,29.96,SSE,162,0.0,0.0,51,0.00,,BKN200,0.00,VWS V13.01,2013-05-25 08:48:00,
2013-05-25 02:53:00,59.5,41.9,29.96,South,183,3.1,3.1,52,0.00,,BKN200,0.00,VWS V13.01,2013-05-25 08:53:00,
2013-05-25 02:58:00,59.5,41.9,29.96,SSE,167,0.0,3.6,52,0.00,,BKN200,0.00,VWS V13.01,2013-05-25 08:58:00,
2013-05-25 03:03:00,59.4,42.2,29.96,South,187,0.0,4.0,53,0.00,,SCT200,0.00,VWS V13.01,2013-05-25 09:03:00,
2013-05-25 03:08:00,59.4,42.2,29.96,SW,222,0.0,4.0,53,0.00,,SCT200,0.00,VWS V13.01,2013-05-25 09:08:00,
2013-05-25 03:14:00,59.4,42.2,29.96,East,93,0.0,4.0,53,0.00,,SCT200,0.00,VWS V13.01,2013-05-25 09:14:00,
2013-05-25 03:19:00,59.2,42.1,29.96,East,94,0.0,0.0,53,0.00,,SCT200,0.00,VWS V13.01,2013-05-25 09:19:00,
2013-05-25 03:24:00,58.8,42.2,29.96,East,93,0.0,0.0,54,0.00,,SCT200,0.00,VWS V13.01,2013-05-25 09:24:00,
2013-05-25 03:29:00,58.5,42.4,29.96,ESE,121,0.0,3.1,55,0.00,,SCT200,0.00,VWS V13.01,2013-05-25 09:29:00,
2013-05-25 03:34:00,58.3,42.2,29.96,ESE,121,0.0,0.0,55,0.00,,SCT200,0.00,VWS V13.01,2013-05-25 09:34:00,
2013-05-25 03:39:00,58.1,42.0,29.96,ESE,121,0.0,2.7,55,0.00,,SCT200,0.00,VWS V13.01,2013-05-25 09:39:00,
2013-05-25 03:44:00,57.7,42.2,29.96,ESE,121,0.0,4.0,56,0.00,,SCT200,0.00,VWS V13.01,2013-05-25 09:44:00,
2013-05-25 03:49:00,57.6,42.5,29.96,ESE,121,0.0,2.2,57,0.00,,SCT200,0.00,VWS V13.01,2013-05-25 09:49:00,
2013-05-25 03:54:00,57.2,42.6,29.96,ESE,121,0.0,3.1,58,0.00,,SCT200,0.00,VWS V13.01,2013-05-25 09:54:00,
2013-05-25 03:59:00,57.2,43.0,29.96,ESE,121,0.0,3.1,59,0.00,,SCT200,0.00,VWS V13.01,2013-05-25 09:59:00,
2013-05-25 04:04:00,57.0,43.3,29.96,ESE,121,0.0,0.0,60,0.00,,SCT200,0.00,VWS V13.01,2013-05-25 10:04:00,
2013-05-25 04:09:00,57.0,43.7,29.96,ESE,121,0.0,0.0,61,0.00,,SCT200,0.00,VWS V13.01,2013-05-25 10:09:00,
2013-05-25 04:14:00,56.8,44.0,29.96,SSW,200,0.0,3.1,62,0.00,,SCT200,0.00,VWS V13.01,2013-05-25 10:14:00,
2013-05-25 04:19:00,56.8,44.0,29.96,SSW,201,0.0,0.0,62,0.00,,SCT200,0.00,VWS V13.01,2013-05-25 10:19:00,
2013-05-25 04:24:00,56.7,44.2,29.99,SW,224,2.7,2.7,63,0.00,,SCT200,0.00,VWS V13.01,2013-05-25 10:24:00,
2013-05-25 04:29:00,56.5,43.6,29.99,SW,229,0.0,4.0,62,0.00,,SCT200,0.00,VWS V13.01,2013-05-25 10:29:00,
2013-05-25 04:34:00,56.3,42.6,29.99,WSW,241,0.0,2.7,60,0.00,,SCT200,0.00,VWS V13.01,2013-05-25 10:34:00,
2013-05-25 04:39:00,56.1,41.6,29.96,SSW,192,0.0,2.7,58,0.00,,SCT200,0.00,VWS V13.01,2013-05-25 10:39:00,
2013-05-25 04:44:00,55.9,40.9,29.96,SW,218,3.6,3.6,57,0.00,,SCT200,0.00,VWS V13.01,2013-05-25 10:44:00,
2013-05-25 04:49:00,55.9,40.0,29.96,SW,220,2.2,3.6,55,0.00,,SCT200,0.00,VWS V13.01,2013-05-25 10:49:00,
2013-05-25 04:54:00,55.9,40.0,29.96,SW,220,2.7,3.6,55,0.00,,SCT200,0.00,VWS V13.01,2013-05-25 10:54:00,
2013-05-25 04:59:00,55.9,40.0,29.96,SSW,208,0.0,3.6,55,0.00,,SCT200,0.00,VWS V13.01,2013-05-25 10:59:00,
2013-05-25 05:04:00,55.9,40.0,29.96,WSW,241,2.7,4.0,55,0.00,,SCT200,0.00,VWS V13.01,2013-05-25 11:04:00,
2013-05-25 05:09:00,56.1,40.2,29.96,WSW,242,0.0,4.9,55,0.00,,SCT200,0.00,VWS V13.01,2013-05-25 11:09:00,
2013-05-25 05:15:00,56.1,40.2,29.96,WSW,237,2.7,4.9,55,0.00,,SCT200,0.00,VWS V13.01,2013-05-25 11:15:00,
2013-05-25 05:20:00,55.8,39.8,29.96,SSW,205,0.0,5.4,55,0.00,,SCT200,0.00,VWS V13.01,2013-05-25 11:20:00,
2013-05-25 05:25:00,55.4,39.0,29.96,SW,221,2.7,5.4,54,0.00,,SCT200,0.00,VWS V13.01,2013-05-25 11:25:00,
2013-05-25 05:30:00,55.0,38.7,29.96,SW,229,3.6,5.4,54,0.00,,SCT200,0.00,VWS V13.01,2013-05-25 11:30:00,
2013-05-25 05:35:00,54.9,38.5,29.96,SW,216,2.2,3.1,54,0.00,,SCT200,0.00,VWS V13.01,2013-05-25 11:35:00,
2013-05-25 05:40:00,54.7,37.9,29.96,South,187,0.0,4.0,53,0.00,,SCT200,0.00,VWS V13.01,2013-05-25 11:40:00,
2013-05-25 05:45:00,54.5,37.7,29.96,South,187,0.0,4.0,53,0.00,,SCT200,0.00,VWS V13.01,2013-05-25 11:45:00,
2013-05-25 05:50:00,54.3,37.1,29.96,SSW,204,0.0,0.0,52,0.00,,SCT200,0.00,VWS V13.01,2013-05-25 11:50:00,
2013-05-25 05:55:00,54.3,36.6,29.96,SSW,206,2.7,3.6,51,0.00,,SCT200,0.00,VWS V13.01,2013-05-25 11:55:00,
2013-05-25 06:00:00,54.3,36.1,29.96,SW,227,3.6,3.6,50,0.00,,SCT200,0.00,VWS V13.01,2013-05-25 12:00:00,
2013-05-25 06:05:00,54.5,35.8,29.96,South,183,2.7,4.0,49,0.00,,FEW200,0.00,VWS V13.01,2013-05-25 12:05:00,
2013-05-25 06:10:00,54.3,36.1,29.96,South,181,0.0,4.0,50,0.00,,FEW200,0.00,VWS V13.01,2013-05-25 12:10:00,
2013-05-25 06:15:00,54.1,35.9,29.96,South,181,0.0,0.0,50,0.00,,FEW200,0.00,VWS V13.01,2013-05-25 12:15:00,
2013-05-25 06:20:00,54.3,36.1,29.96,SW,223,0.0,0.0,50,0.00,,FEW200,0.00,VWS V13.01,2013-05-25 12:20:00,
2013-05-25 06:25:00,54.5,35.8,29.96,SW,223,0.0,0.0,49,0.00,,FEW200,0.00,VWS V13.01,2013-05-25 12:25:00,
2013-05-25 06:30:00,55.0,35.2,29.96,SW,235,0.0,0.0,47,0.00,,FEW200,0.00,VWS V13.01,2013-05-25 12:30:00,
2013-05-25 06:35:00,55.4,35.0,29.96,SW,235,0.0,0.0,46,0.00,,FEW200,0.00,VWS V13.01,2013-05-25 12:35:00,
2013-05-25 06:40:00,55.9,35.5,29.96,SW,217,0.0,0.0,46,0.00,,FEW200,0.00,VWS V13.01,2013-05-25 12:40:00,
2013-05-25 06:45:00,56.5,35.4,29.96,SW,217,0.0,0.0,45,0.00,,FEW200,0.00,VWS V13.01,2013-05-25 12:45:00,
2013-05-25 06:50:00,56.8,35.2,29.96,SW,217,0.0,0.0,44,0.00,,FEW200,0.00,VWS V13.01,2013-05-25 12:50:00,
2013-05-25 06:55:00,57.2,34.9,29.96,SW,217,0.0,0.0,43,0.00,,FEW200,0.00,VWS V13.01,2013-05-25 12:55:00,
2013-05-25 07:00:00,57.6,35.2,29.96,SW,217,0.0,0.0,43,0.00,,FEW200,0.00,VWS V13.01,2013-05-25 13:00:00,
2013-05-25 07:05:00,58.3,35.9,29.96,SW,217,0.0,0.0,43,0.00,,FEW220,0.00,VWS V13.01,2013-05-25 13:05:00,
2013-05-25 07:10:00,58.8,35.8,29.96,SW,217,0.0,0.0,42,0.00,,FEW220,0.00,VWS V13.01,2013-05-25 13:10:00,
2013-05-25 07:16:00,59.4,35.1,29.96,ESE,113,2.2,2.2,40,0.00,,FEW220,0.00,VWS V13.01,2013-05-25 13:16:00,
2013-05-25 07:21:00,59.9,34.2,29.96,SSE,155,3.1,3.1,38,0.00,,FEW220,0.00,VWS V13.01,2013-05-25 13:21:00,
2013-05-25 07:26:00,60.3,33.2,29.96,South,179,3.1,4.9,36,0.00,,FEW220,0.00,VWS V13.01,2013-05-25 13:26:00,
2013-05-25 07:31:00,60.6,33.5,29.96,SE,133,2.7,3.6,36,0.00,,FEW220,0.00,VWS V13.01,2013-05-25 13:31:00,
2013-05-25 07:36:00,61.2,32.6,29.96,SSE,153,0.0,4.0,34,0.00,,FEW220,0.00,VWS V13.01,2013-05-25 13:36:00,
2013-05-25 07:41:00,61.7,32.3,29.99,South,176,4.0,4.0,33,0.00,,FEW220,0.00,VWS V13.01,2013-05-25 13:41:00,
2013-05-25 07:46:00,62.1,29.5,29.99,SSE,147,2.2,5.4,29,0.00,,FEW220,0.00,VWS V13.01,2013-05-25 13:46:00,
2013-05-25 07:51:00,62.4,28.9,29.99,SSE,165,2.2,5.4,28,0.00,,FEW220,0.00,VWS V13.01,2013-05-25 13:51:00,
2013-05-25 07:56:00,62.8,28.3,29.99,SSE,152,0.0,5.4,27,0.00,,FEW220,0.00,VWS V13.01,2013-05-25 13:56:00,
2013-05-25 08:01:00,63.5,29.0,29.99,SSW,195,2.7,2.7,27,0.00,,FEW220,0.00,VWS V13.01,2013-05-25 14:01:00,
2013-05-25 08:06:00,64.2,28.6,29.99,SSE,164,2.2,3.6,26,0.00,,FEW220,0.00,VWS V13.01,2013-05-25 14:06:00,
2013-05-25 08:11:00,64.6,28.0,29.99,South,180,0.0,3.6,25,0.00,,FEW220,0.00,VWS V13.01,2013-05-25 14:11:00,
2013-05-25 08:16:00,65.1,27.5,29.99,SE,133,4.0,4.0,24,0.00,,FEW220,0.00,VWS V13.01,2013-05-25 14:16:00,
2013-05-25 08:21:00,65.8,28.1,29.99,SSE,150,2.7,4.0,24,0.00,,FEW220,0.00,VWS V13.01,2013-05-25 14:21:00,
2013-05-25 08:26:00,66.2,27.3,29.99,SSE,159,3.1,4.0,23,0.00,,FEW220,0.00,VWS V13.01,2013-05-25 14:26:00,
2013-05-25 08:31:00,66.4,27.5,29.99,ESE,121,2.2,5.4,23,0.00,,FEW220,0.00,VWS V13.01,2013-05-25 14:31:00,
2013-05-25 08:36:00,66.9,27.9,29.99,ESE,102,0.0,5.4,23,0.00,,FEW220,0.00,VWS V13.01,2013-05-25 14:36:00,
2013-05-25 08:41:00,67.5,28.4,29.99,SE,139,2.7,5.4,23,0.00,,FEW220,0.00,VWS V13.01,2013-05-25 14:41:00,
2013-05-25 08:46:00,67.8,25.3,29.99,SSE,166,3.1,4.9,20,0.00,,FEW220,0.00,VWS V13.01,2013-05-25 14:46:00,
2013-05-25 08:51:00,68.2,27.9,29.99,SSE,155,3.6,4.9,22,0.00,,FEW220,0.00,VWS V13.01,2013-05-25 14:51:00,
2013-05-25 08:56:00,68.7,26.1,29.99,SE,127,2.7,5.8,20,0.00,,FEW220,0.00,VWS V13.01,2013-05-25 14:56:00,
2013-05-25 09:01:00,69.3,22.6,29.99,SSW,211,5.8,5.8,17,0.00,,FEW220,0.00,VWS V13.01,2013-05-25 15:01:00,
2013-05-25 09:06:00,69.8,23.1,29.99,SE,128,3.6,5.8,17,0.00,,FEW220,0.00,VWS V13.01,2013-05-25 15:06:00,
2013-05-25 09:11:00,70.2,18.8,29.99,SSE,167,4.9,5.8,14,0.00,,FEW220,0.00,VWS V13.01,2013-05-25 15:11:00,
2013-05-25 09:16:00,70.5,19.1,29.99,SSW,198,2.2,4.0,14,0.00,,FEW220,0.00,VWS V13.01,2013-05-25 15:16:00,
2013-05-25 09:21:00,71.2,19.6,29.99,ESE,112,3.6,5.4,14,0.00,,FEW220,0.00,VWS V13.01,2013-05-25 15:21:00,
2013-05-25 09:26:00,71.6,14.4,29.99,SE,125,2.2,5.4,11,0.00,,FEW220,0.00,VWS V13.01,2013-05-25 15:26:00,
2013-05-25 09:31:00,72.1,14.8,29.99,SE,134,4.0,4.9,11,0.00,,FEW220,0.00,VWS V13.01,2013-05-25 15:31:00,
2013-05-25 09:37:00,72.9,15.3,29.99,SE,141,0.0,5.4,11,0.00,,FEW220,0.00,VWS V13.01,2013-05-25 15:37:00,
2013-05-25 09:42:00,73.6,15.9,29.99,East,96,3.6,5.4,11,0.00,,FEW220,0.00,VWS V13.01,2013-05-25 15:42:00,
2013-05-25 09:47:00,74.1,16.3,29.99,WSW,248,4.9,4.9,11,0.00,,FEW220,0.00,VWS V13.01,2013-05-25 15:47:00,
2013-05-25 09:52:00,73.9,16.1,29.99,WSW,258,0.0,4.9,11,0.00,,FEW220,0.00,VWS V13.01,2013-05-25 15:52:00,
2013-05-25 09:57:00,74.5,16.6,29.96,SSE,152,4.5,4.9,11,0.00,,FEW220,0.00,VWS V13.01,2013-05-25 15:57:00,
2013-05-25 10:07:00,75.6,15.2,0.00,East,90,3.1,3.6,10,0.00,,FEW220,0.00,VWS V13.01,2013-05-25 16:07:00,
2013-05-25 10:12:00,75.9,10.4,29.96,SW,230,0.0,4.0,8,0.00,,FEW220,0.00,VWS V13.01,2013-05-25 16:12:00,
2013-05-25 10:17:00,76.5,10.8,29.96,SW,228,2.7,3.6,8,0.00,,SCT220,0.00,VWS V13.01,2013-05-25 16:17:00,
2013-05-25 10:22:00,77.4,11.5,29.96,NW,310,0.0,3.6,8,0.00,,SCT220,0.00,VWS V13.01,2013-05-25 16:22:00,
2013-05-25 10:27:00,78.4,12.3,29.93,ENE,60,2.7,4.0,8,0.00,,SCT220,0.00,VWS V13.01,2013-05-25 16:27:00,
2013-05-25 10:32:00,79.0,9.7,29.93,SSW,206,2.7,6.3,7,0.00,,SCT220,0.00,VWS V13.01,2013-05-25 16:32:00,
2013-05-25 10:37:00,79.5,10.1,29.93,ESE,103,2.7,6.3,7,0.00,,SCT220,0.00,VWS V13.01,2013-05-25 16:37:00,
2013-05-25 10:42:00,80.1,10.5,29.93,South,189,6.3,6.3,7,0.00,,SCT220,0.00,VWS V13.01,2013-05-25 16:42:00,
2013-05-25 10:47:00,80.4,10.8,29.93,East,90,5.8,5.8,7,0.00,,SCT220,0.00,VWS V13.01,2013-05-25 16:47:00,
2013-05-25 10:52:00,81.0,11.2,29.93,WSW,251,5.4,7.6,7,0.00,,SCT220,0.00,VWS V13.01,2013-05-25 16:52:00,
2013-05-25 10:57:00,80.8,11.0,29.90,NNE,33,3.1,7.6,7,0.00,,SCT220,0.00,VWS V13.01,2013-05-25 16:57:00,
2013-05-25 11:02:00,81.0,11.2,29.90,SE,133,4.0,7.6,7,0.00,,SCT220,0.00,VWS V13.01,2013-05-25 17:02:00,
2013-05-25 11:07:00,81.1,11.3,29.90,ENE,77,4.0,8.1,7,0.00,,SCT220,0.00,VWS V13.01,2013-05-25 17:07:00,
2013-05-25 11:12:00,81.1,11.3,29.90,SSE,154,2.2,8.1,7,0.00,,SCT220,0.00,VWS V13.01,2013-05-25 17:12:00,
2013-05-25 11:17:00,81.5,11.6,29.90,East,83,8.3,8.3,7,0.00,,SCT220,0.00,VWS V13.01,2013-05-25 17:17:00,
2013-05-25 11:22:00,81.7,11.7,29.90,South,190,2.7,8.3,7,0.00,,SCT220,0.00,VWS V13.01,2013-05-25 17:22:00,
2013-05-25 11:27:00,82.2,12.1,29.90,SW,220,5.8,8.3,7,0.00,,SCT220,0.00,VWS V13.01,2013-05-25 17:27:00,
2013-05-25 11:32:00,81.5,11.6,29.90,ESE,112,3.6,4.5,7,0.00,,SCT220,0.00,VWS V13.01,2013-05-25 17:32:00,
2013-05-25 11:37:00,81.5,11.6,29.90,SSW,211,3.1,7.6,7,0.00,,SCT220,0.00,VWS V13.01,2013-05-25 17:37:00,
2013-05-25 11:42:00,81.5,11.6,29.87,SW,218,0.0,7.6,7,0.00,,SCT220,0.00,VWS V13.01,2013-05-25 17:42:00,
2013-05-25 11:47:00,81.9,11.8,29.87,SSE,160,6.3,6.7,7,0.00,,SCT220,0.00,VWS V13.01,2013-05-25 17:47:00,
2013-05-25 11:52:00,82.2,12.1,29.87,SSE,163,3.6,8.7,7,0.00,,SCT220,0.00,VWS V13.01,2013-05-25 17:52:00,
2013-05-25 11:58:00,82.2,12.1,29.87,SW,223,4.9,10.1,7,0.00,,SCT220,0.00,VWS V13.01,2013-05-25 17:58:00,
2013-05-25 12:03:00,82.6,8.9,29.87,ENE,69,5.8,8.1,6,0.00,,BKN220,0.00,VWS V13.01,2013-05-25 18:03:00,
2013-05-25 12:08:00,82.6,8.9,29.87,North,357,2.7,8.7,6,0.00,,BKN220,0.00,VWS V13.01,2013-05-25 18:08:00,
2013-05-25 12:13:00,82.9,9.1,29.87,SE,141,3.6,8.7,6,0.00,,BKN220,0.00,VWS V13.01,2013-05-25 18:13:00,
2013-05-25 12:18:00,82.9,9.1,29.87,SSE,154,3.6,12.3,6,0.00,,BKN220,0.00,VWS V13.01,2013-05-25 18:18:00,
2013-05-25 12:23:00,82.9,9.1,29.87,SSW,208,3.1,12.3,6,0.00,,BKN220,0.00,VWS V13.01,2013-05-25 18:23:00,
2013-05-25 12:28:00,83.3,9.4,29.87,SE,125,6.3,12.3,6,0.00,,BKN220,0.00,VWS V13.01,2013-05-25 18:28:00,
2013-05-25 12:33:00,83.8,9.8,29.87,SSE,150,4.9,7.6,6,0.00,,BKN220,0.00,VWS V13.01,2013-05-25 18:33:00,
2013-05-25 12:38:00,84.4,10.2,29.87,SE,125,6.3,8.7,6,0.00,,BKN220,0.00,VWS V13.01,2013-05-25 18:38:00,
2013-05-25 12:43:00,84.7,10.4,29.87,ESE,117,8.7,10.1,6,0.00,,BKN220,0.00,VWS V13.01,2013-05-25 18:43:00,
2013-05-25 12:48:00,84.6,10.3,29.87,SE,126,8.1,15.0,6,0.00,,BKN220,0.00,VWS V13.01,2013-05-25 18:48:00,
2013-05-25 12:53:00,84.9,10.6,29.84,ESE,115,3.1,15.0,6,0.00,,BKN220,0.00,VWS V13.01,2013-05-25 18:53:00,
2013-05-25 12:58:00,84.7,10.4,29.84,North,9,6.3,15.0,6,0.00,,BKN220,0.00,VWS V13.01,2013-05-25 18:58:00,
2013-05-25 13:03:00,84.7,10.4,29.84,NE,55,8.7,8.7,6,0.00,,BKN220,0.00,VWS V13.01,2013-05-25 19:03:00,
2013-05-25 13:08:00,85.1,10.7,29.84,ESE,113,4.0,9.2,6,0.00,,BKN220,0.00,VWS V13.01,2013-05-25 19:08:00,
2013-05-25 13:13:00,85.6,11.1,29.84,SSE,159,5.8,10.5,6,0.00,,BKN220,0.00,VWS V13.01,2013-05-25 19:13:00,
2013-05-25 13:18:00,85.6,11.1,29.84,ESE,116,6.3,8.7,6,0.00,,BKN220,0.00,VWS V13.01,2013-05-25 19:18:00,
2013-05-25 13:23:00,85.5,11.0,29.84,SE,124,5.4,8.7,6,0.00,,BKN220,0.00,VWS V13.01,2013-05-25 19:23:00,
2013-05-25 13:28:00,85.3,10.8,29.84,SSW,206,3.6,8.7,6,0.00,,BKN220,0.00,VWS V13.01,2013-05-25 19:28:00,
2013-05-25 13:33:00,86.0,11.4,29.84,South,181,3.6,6.3,6,0.00,,BKN220,0.00,VWS V13.01,2013-05-25 19:33:00,
2013-05-25 13:38:00,86.2,11.5,29.84,SSE,149,5.4,8.7,6,0.00,,BKN220,0.00,VWS V13.01,2013-05-25 19:38:00,
2013-05-25 13:43:00,86.9,12.0,29.84,SSW,207,2.7,8.7,6,0.00,,BKN220,0.00,VWS V13.01,2013-05-25 19:43:00,
2013-05-25 13:48:00,87.3,12.2,29.84,ESE,110,6.3,8.7,6,0.00,,BKN220,0.00,VWS V13.01,2013-05-25 19:48:00,
2013-05-25 13:53:00,86.9,12.0,29.84,ESE,106,8.1,12.3,6,0.00,,BKN220,0.00,VWS V13.01,2013-05-25 19:53:00,
2013-05-25 13:58:00,86.5,11.7,29.84,SE,141,5.4,12.3,6,0.00,,BKN220,0.00,VWS V13.01,2013-05-25 19:58:00,
2013-05-25 14:04:00,86.7,11.9,29.84,NE,52,5.4,8.7,6,0.00,,BKN220,0.00,VWS V13.01,2013-05-25 20:04:00,
2013-05-25 14:09:00,86.9,12.0,29.84,SSE,164,3.1,9.2,6,0.00,,BKN220,0.00,VWS V13.01,2013-05-25 20:09:00,
2013-05-25 14:14:00,86.9,12.0,29.84,SE,138,5.8,9.2,6,0.00,,BKN220,0.00,VWS V13.01,2013-05-25 20:14:00,
2013-05-25 14:19:00,86.9,12.0,29.84,ESE,108,4.0,8.7,6,0.00,,BKN220,0.00,VWS V13.01,2013-05-25 20:19:00,
2013-05-25 14:24:00,87.4,12.4,29.81,ESE,110,5.4,8.7,6,0.00,,BKN220,0.00,VWS V13.01,2013-05-25 20:24:00,
2013-05-25 14:29:00,87.4,12.4,29.81,SSE,168,6.3,12.3,6,0.00,,BKN220,0.00,VWS V13.01,2013-05-25 20:29:00,
2013-05-25 14:34:00,87.1,12.1,29.81,SSW,205,3.1,7.6,6,0.00,,BKN220,0.00,VWS V13.01,2013-05-25 20:34:00,
2013-05-25 14:39:00,87.1,12.1,29.81,SE,127,3.6,7.6,6,0.00,,BKN220,0.00,VWS V13.01,2013-05-25 20:39:00,
2013-05-25 14:44:00,86.9,12.0,29.81,SSW,209,0.0,7.6,6,0.00,,BKN220,0.00,VWS V13.01,2013-05-25 20:44:00,
2013-05-25 14:49:00,86.5,11.7,29.81,SW,225,5.4,6.3,6,0.00,,BKN220,0.00,VWS V13.01,2013-05-25 20:49:00,
2013-05-25 14:54:00,86.4,11.6,29.81,SE,140,2.7,6.3,6,0.00,,BKN220,0.00,VWS V13.01,2013-05-25 20:54:00,
2013-05-25 14:59:00,86.5,11.7,29.81,SSE,147,6.3,6.3,6,0.00,,BKN220,0.00,VWS V13.01,2013-05-25 20:59:00,
2013-05-25 15:04:00,86.4,11.6,29.81,West,264,4.0,13.6,6,0.00,,BKN200,0.00,VWS V13.01,2013-05-25 21:04:00,
2013-05-25 15:09:00,86.0,11.4,29.81,West,275,5.4,13.6,6,0.00,,BKN200,0.00,VWS V13.01,2013-05-25 21:09:00,
2013-05-25 15:14:00,85.8,11.2,29.81,SW,232,3.6,13.6,6,0.00,,BKN200,0.00,VWS V13.01,2013-05-25 21:14:00,
2013-05-25 15:19:00,85.6,11.1,29.81,WSW,244,6.3,7.6,6,0.00,,BKN200,0.00,VWS V13.01,2013-05-25 21:19:00,
2013-05-25 15:24:00,85.6,11.1,29.81,SW,226,10.1,10.1,6,0.00,,BKN200,0.00,VWS V13.01,2013-05-25 21:24:00,
2013-05-25 15:29:00,85.5,11.0,29.81,WNW,288,4.9,10.1,6,0.00,,BKN200,0.00,VWS V13.01,2013-05-25 21:29:00,
2013-05-25 15:34:00,85.5,11.0,29.81,SW,216,4.0,8.3,6,0.00,,BKN200,0.00,VWS V13.01,2013-05-25 21:34:00,
2013-05-25 15:39:00,85.3,10.8,29.84,SW,219,2.7,8.7,6,0.00,,BKN200,0.00,VWS V13.01,2013-05-25 21:39:00,
2013-05-25 15:44:00,85.1,10.7,29.84,WSW,251,3.1,12.3,6,0.00,,BKN200,0.00,VWS V13.01,2013-05-25 21:44:00,
2013-05-25 15:49:00,85.1,10.7,29.84,West,263,5.4,8.1,6,0.00,,BKN200,0.00,VWS V13.01,2013-05-25 21:49:00,
2013-05-25 15:54:00,85.6,11.1,29.84,West,266,7.6,11.4,6,0.00,,BKN200,0.00,VWS V13.01,2013-05-25 21:54:00,
2013-05-25 15:59:00,85.6,11.1,29.84,WSW,238,5.4,11.4,6,0.00,,BKN200,0.00,VWS V13.01,2013-05-25 21:59:00,
2013-05-25 16:04:00,86.0,11.4,29.84,SSW,201,2.7,8.3,6,0.00,,BKN200,0.00,VWS V13.01,2013-05-25 22:04:00,
2013-05-25 16:10:00,86.4,11.6,29.84,WSW,247,7.6,8.3,6,0.00,,BKN200,0.00,VWS V13.01,2013-05-25 22:10:00,
2013-05-25 16:15:00,86.2,11.5,29.84,WSW,243,3.1,8.3,6,0.00,,BKN200,0.00,VWS V13.01,2013-05-25 22:15:00,
2013-05-25 16:20:00,86.4,11.6,29.84,WSW,254,5.4,6.3,6,0.00,,BKN200,0.00,VWS V13.01,2013-05-25 22:20:00,
2013-05-25 16:25:00,86.4,11.6,29.81,West,260,3.1,6.3,6,0.00,,BKN200,0.00,VWS V13.01,2013-05-25 22:25:00,
2013-05-25 16:30:00,86.9,12.0,29.81,WSW,238,4.0,6.3,6,0.00,,BKN200,0.00,VWS V13.01,2013-05-25 22:30:00,
2013-05-25 16:35:00,87.3,12.2,29.81,WNW,300,4.0,5.4,6,0.00,,BKN200,0.00,VWS V13.01,2013-05-25 22:35:00,
2013-05-25 16:40:00,87.6,12.5,29.81,SW,217,0.0,5.4,6,0.00,,BKN200,0.00,VWS V13.01,2013-05-25 22:40:00,
2013-05-25 16:45:00,88.5,9.1,29.81,South,183,4.0,4.9,5,0.00,,BKN200,0.00,VWS V13.01,2013-05-25 22:45:00,
2013-05-25 16:50:00,88.7,9.2,29.81,SW,217,3.6,5.8,5,0.00,,BKN200,0.00,VWS V13.01,2013-05-25 22:50:00,
2013-05-25 16:55:00,88.5,9.1,29.81,WSW,240,3.1,5.8,5,0.00,,BKN200,0.00,VWS V13.01,2013-05-25 22:55:00,
2013-05-25 17:00:00,87.6,12.5,29.81,South,186,2.7,2.7,6,0.00,,BKN200,0.00,VWS V13.01,2013-05-25 23:00:00,
2013-05-25 17:05:00,86.9,12.0,29.81,SE,130,3.6,4.9,6,0.00,,BKN200,0.00,VWS V13.01,2013-05-25 23:05:00,
2013-05-25 17:10:00,86.2,11.5,29.78,SE,145,6.3,6.3,6,0.00,,BKN200,0.00,VWS V13.01,2013-05-25 23:10:00,
2013-05-25 17:15:00,86.0,11.4,29.78,SE,129,0.0,0.0,6,0.00,,BKN200,0.00,VWS V13.01,2013-05-25 23:15:00,
2013-05-25 17:20:00,86.5,11.7,29.78,West,260,3.6,4.9,6,0.00,,BKN200,0.00,VWS V13.01,2013-05-25 23:20:00,
2013-05-25 17:25:00,87.3,12.2,29.78,NE,35,0.0,4.9,6,0.00,,BKN200,0.00,VWS V13.01,2013-05-25 23:25:00,
2013-05-25 17:30:00,88.0,8.7,29.78,SE,130,2.7,2.7,5,0.00,,BKN200,0.00,VWS V13.01,2013-05-25 23:30:00,
2013-05-25 17:35:00,87.4,12.4,29.78,SSE,165,2.7,5.8,6,0.00,,BKN200,0.00,VWS V13.01,2013-05-25 23:35:00,
2013-05-25 17:40:00,87.1,12.1,29.78,ENE,71,0.0,5.8,6,0.00,,BKN200,0.00,VWS V13.01,2013-05-25 23:40:00,
2013-05-25 17:45:00,86.7,11.9,29.78,WSW,249,0.0,0.0,6,0.00,,BKN200,0.00,VWS V13.01,2013-05-25 23:45:00,
2013-05-25 17:50:00,86.5,11.7,29.78,SW,226,0.0,0.0,6,0.00,,BKN200,0.00,VWS V13.01,2013-05-25 23:50:00,
2013-05-25 17:55:00,86.5,11.7,29.78,SW,226,0.0,0.0,6,0.00,,BKN200,0.00,VWS V13.01,2013-05-25 23:55:00,
2013-05-25 18:00:00,86.7,11.9,29.78,SE,135,3.6,3.6,6,0.00,,BKN200,0.00,VWS V13.01,2013-05-26 00:00:00,
2013-05-25 18:05:00,86.5,11.7,29.78,WNW,286,2.7,5.4,6,0.00,,BKN200,0.00,VWS V13.01,2013-05-26 00:05:00,
2013-05-25 18:10:00,86.7,11.9,29.81,WSW,247,4.0,5.4,6,0.00,,BKN200,0.00,VWS V13.01,2013-05-26 00:10:00,
2013-05-25 18:15:00,87.1,12.1,29.81,WSW,242,2.7,2.7,6,0.00,,BKN200,0.00,VWS V13.01,2013-05-26 00:15:00,
2013-05-25 18:20:00,86.7,11.9,29.81,SW,233,4.0,5.4,6,0.00,,BKN200,0.00,VWS V13.01,2013-05-26 00:20:00,
2013-05-25 18:26:00,86.4,11.6,29.81,WSW,253,4.0,6.3,6,0.00,,BKN200,0.00,VWS V13.01,2013-05-26 00:26:00,
2013-05-25 18:31:00,86.0,11.4,29.81,South,177,0.0,0.0,6,0.00,,BKN200,0.00,VWS V13.01,2013-05-26 00:31:00,
2013-05-25 18:36:00,85.6,11.1,29.81,ESE,104,0.0,2.7,6,0.00,,BKN200,0.00,VWS V13.01,2013-05-26 00:36:00,
2013-05-25 18:41:00,85.5,11.0,29.81,ESE,104,0.0,2.7,6,0.00,,BKN200,0.00,VWS V13.01,2013-05-26 00:41:00,
2013-05-25 18:46:00,85.3,10.8,29.81,ESE,104,0.0,0.0,6,0.00,,BKN200,0.00,VWS V13.01,2013-05-26 00:46:00,
2013-05-25 18:51:00,85.1,10.7,29.81,ESE,104,0.0,0.0,6,0.00,,BKN200,0.00,VWS V13.01,2013-05-26 00:51:00,
2013-05-25 18:56:00,84.6,10.3,29.81,South,181,0.0,2.7,6,0.00,,BKN200,0.00,VWS V13.01,2013-05-26 00:56:00,
2013-05-25 19:01:00,84.0,9.9,29.81,West,261,0.0,0.0,6,0.00,,BKN200,0.00,VWS V13.01,2013-05-26 01:01:00,
2013-05-25 19:06:00,83.5,9.5,29.81,West,261,0.0,0.0,6,0.00,,BKN200,0.00,VWS V13.01,2013-05-26 01:06:00,
2013-05-25 19:11:00,82.9,9.1,29.81,West,262,0.0,0.0,6,0.00,,BKN200,0.00,VWS V13.01,2013-05-26 01:11:00,
2013-05-25 19:16:00,82.4,8.8,29.81,West,261,0.0,0.0,6,0.00,,BKN200,0.00,VWS V13.01,2013-05-26 01:16:00,
2013-05-25 19:21:00,81.9,11.8,29.81,SW,220,0.0,0.0,7,0.00,,BKN200,0.00,VWS V13.01,2013-05-26 01:21:00,
2013-05-25 19:26:00,81.0,11.2,29.81,SW,220,0.0,0.0,7,0.00,,BKN200,0.00,VWS V13.01,2013-05-26 01:26:00,
2013-05-25 19:31:00,80.6,10.9,29.81,SW,220,0.0,0.0,7,0.00,,BKN200,0.00,VWS V13.01,2013-05-26 01:31:00,
2013-05-25 19:36:00,80.6,10.9,29.81,SW,220,0.0,0.0,7,0.00,,BKN200,0.00,VWS V13.01,2013-05-26 01:36:00,
2013-05-25 19:41:00,80.2,10.6,29.81,SW,220,0.0,0.0,7,0.00,,BKN200,0.00,VWS V13.01,2013-05-26 01:41:00,
2013-05-25 19:46:00,79.7,10.2,29.81,West,262,0.0,0.0,7,0.00,,BKN200,0.00,VWS V13.01,2013-05-26 01:46:00,
2013-05-25 19:51:00,79.3,10.0,29.81,North,353,0.0,4.0,7,0.00,,BKN200,0.00,VWS V13.01,2013-05-26 01:51:00,
2013-05-25 19:56:00,79.3,10.0,29.81,NE,35,3.1,4.9,7,0.00,,BKN200,0.00,VWS V13.01,2013-05-26 01:56:00,
2013-05-25 20:01:00,80.1,10.5,29.81,North,353,0.0,3.1,7,0.00,,BKN200,0.00,VWS V13.01,2013-05-26 02:01:00,
2013-05-25 20:06:00,81.0,11.2,29.81,NW,318,7.6,7.6,7,0.00,,BKN200,0.00,VWS V13.01,2013-05-26 02:06:00,
2013-05-25 20:11:00,81.3,11.4,29.84,NW,304,4.9,7.6,7,0.00,,BKN200,0.00,VWS V13.01,2013-05-26 02:11:00,
2013-05-25 20:16:00,81.1,11.3,29.84,NNE,29,0.0,6.3,7,0.00,,BKN200,0.00,VWS V13.01,2013-05-26 02:16:00,
2013-05-25 20:21:00,81.1,11.3,29.84,West,264,4.9,6.3,7,0.00,,BKN200,0.00,VWS V13.01,2013-05-26 02:21:00,
2013-05-25 20:26:00,80.8,11.0,29.84,WNW,292,0.0,6.3,7,0.00,,BKN200,0.00,VWS V13.01,2013-05-26 02:26:00,
2013-05-25 20:31:00,80.1,10.5,29.84,WNW,292,0.0,0.0,7,0.00,,BKN200,0.00,VWS V13.01,2013-05-26 02:31:00,
2013-05-25 20:36:00,79.0,9.7,29.84,WNW,292,0.0,0.0,7,0.00,,BKN200,0.00,VWS V13.01,2013-05-26 02:36:00,
2013-05-25 20:41:00,78.1,12.0,29.84,WNW,292,0.0,0.0,8,0.00,,BKN200,0.00,VWS V13.01,2013-05-26 02:41:00,
2013-05-25 20:46:00,77.5,11.6,29.84,North,10,0.0,2.2,8,0.00,,BKN200,0.00,VWS V13.01,2013-05-26 02:46:00,
2013-05-25 20:52:00,77.2,11.4,29.84,North,10,0.0,2.2,8,0.00,,BKN200,0.00,VWS V13.01,2013-05-26 02:52:00,
2013-05-25 20:57:00,76.8,11.1,29.84,NW,310,0.0,2.7,8,0.00,,BKN200,0.00,VWS V13.01,2013-05-26 02:57:00,
2013-05-25 21:02:00,76.1,10.6,29.84,NW,314,0.0,0.0,8,0.00,,BKN200,0.00,VWS V13.01,2013-05-26 03:02:00,
2013-05-25 21:07:00,75.7,10.3,29.84,NW,321,0.0,0.0,8,0.00,,SCT200,0.00,VWS V13.01,2013-05-26 03:07:00,
2013-05-25 21:12:00,75.4,10.0,29.87,ENE,60,2.2,4.0,8,0.00,,SCT200,0.00,VWS V13.01,2013-05-26 03:12:00,
2013-05-25 21:17:00,75.0,9.8,29.87,NE,47,2.7,3.1,8,0.00,,SCT200,0.00,VWS V13.01,2013-05-26 03:17:00,
2013-05-25 21:22:00,74.7,9.5,29.87,NE,46,0.0,4.0,8,0.00,,SCT200,0.00,VWS V13.01,2013-05-26 03:22:00,
2013-05-25 21:27:00,74.3,9.2,29.87,NE,46,0.0,4.0,8,0.00,,SCT200,0.00,VWS V13.01,2013-05-26 03:27:00,
2013-05-25 21:32:00,73.8,16.0,29.87,NE,46,0.0,0.0,11,0.00,,SCT200,0.00,VWS V13.01,2013-05-26 03:32:00,
2013-05-25 21:37:00,73.2,15.6,29.87,WNW,299,2.7,2.7,11,0.00,,SCT200,0.00,VWS V13.01,2013-05-26 03:37:00,
2013-05-25 21:42:00,72.9,20.9,29.87,WNW,288,2.7,6.7,14,0.00,,SCT200,0.00,VWS V13.01,2013-05-26 03:42:00,
2013-05-25 21:47:00,72.7,20.8,29.87,NW,310,0.0,0.0,14,0.00,,SCT200,0.00,VWS V13.01,2013-05-26 03:47:00,
2013-05-25 21:52:00,72.5,23.8,29.87,NW,310,0.0,0.0,16,0.00,,SCT200,0.00,VWS V13.01,2013-05-26 03:52:00,
2013-05-25 21:57:00,72.3,23.6,29.87,NW,310,0.0,0.0,16,0.00,,SCT200,0.00,VWS V13.01,2013-05-26 03:57:00,
2013-05-25 22:01:00,72.1,27.6,29.87,NW,309,0.0,0.0,19,0.00,,SCT200,0.00,VWS V13.01,2013-05-26 04:01:00,
2013-05-25 22:02:00,72.1,27.6,29.87,NW,310,0.0,0.0,19,0.00,,SCT200,0.00,VWS V13.01,2013-05-26 04:02:00,
2013-05-25 22:07:00,72.0,29.9,29.87,WNW,298,0.0,4.0,21,0.00,,SCT200,0.00,VWS V13.01,2013-05-26 04:07:00,
2013-05-25 22:12:00,71.8,29.8,29.90,NW,317,0.0,4.0,21,0.00,,SCT200,0.00,VWS V13.01,2013-05-26 04:12:00,
2013-05-25 22:17:00,72.0,31.1,29.90,North,353,0.0,3.6,22,0.00,,SCT200,0.00,VWS V13.01,2013-05-26 04:17:00,
2013-05-25 22:22:00,72.0,31.1,29.90,WNW,298,3.1,5.4,22,0.00,,SCT200,0.00,VWS V13.01,2013-05-26 04:22:00,
2013-05-25 22:27:00,72.1,31.2,29.87,WNW,290,3.6,5.4,22,0.00,,SCT200,0.00,VWS V13.01,2013-05-26 04:27:00,
2013-05-25 22:32:00,72.1,31.2,29.87,WNW,301,0.0,2.7,22,0.00,,SCT200,0.00,VWS V13.01,2013-05-26 04:32:00,
2013-05-25 22:37:00,72.0,31.1,29.87,WNW,294,0.0,5.4,22,0.00,,SCT200,0.00,VWS V13.01,2013-05-26 04:37:00,
2013-05-25 22:42:00,71.8,30.9,29.87,WNW,295,0.0,5.4,22,0.00,,SCT200,0.00,VWS V13.01,2013-05-26 04:42:00,
2013-05-25 22:47:00,71.6,30.8,29.87,WNW,295,0.0,0.0,22,0.00,,SCT200,0.00,VWS V13.01,2013-05-26 04:47:00,
2013-05-25 22:52:00,71.2,30.5,29.87,WNW,295,0.0,0.0,22,0.00,,SCT200,0.00,VWS V13.01,2013-05-26 04:52:00,
2013-05-25 22:57:00,71.1,30.3,29.87,NW,306,0.0,3.6,22,0.00,,SCT200,0.00,VWS V13.01,2013-05-26 04:57:00,
2013-05-25 23:02:00,70.9,30.2,29.87,NW,306,0.0,0.0,22,0.00,,SCT200,0.00,VWS V13.01,2013-05-26 05:02:00,
2013-05-25 23:07:00,70.7,30.0,29.87,WNW,282,4.0,4.0,22,0.00,,SCT200,0.00,VWS V13.01,2013-05-26 05:07:00,
2013-05-25 23:12:00,70.5,29.9,29.87,West,278,4.0,4.0,22,0.00,,SCT200,0.00,VWS V13.01,2013-05-26 05:12:00,
2013-05-25 23:17:00,70.5,29.9,29.87,WNW,294,2.2,4.9,22,0.00,,SCT200,0.00,VWS V13.01,2013-05-26 05:17:00,
2013-05-25 23:22:00,70.2,30.7,29.87,WNW,295,2.2,4.9,23,0.00,,SCT200,0.00,VWS V13.01,2013-05-26 05:22:00,
2013-05-25 23:27:00,69.8,30.4,29.87,WNW,299,2.2,4.9,23,0.00,,SCT200,0.00,VWS V13.01,2013-05-26 05:27:00,
2013-05-25 23:32:00,69.6,30.2,29.87,WNW,286,2.2,3.6,23,0.00,,SCT200,0.00,VWS V13.01,2013-05-26 05:32:00,
2013-05-25 23:37:00,69.3,29.9,29.87,WNW,284,0.0,3.6,23,0.00,,SCT200,0.00,VWS V13.01,2013-05-26 05:37:00,
2013-05-25 23:42:00,68.9,29.6,29.90,WNW,298,0.0,3.6,23,0.00,,SCT200,0.00,VWS V13.01,2013-05-26 05:42:00,
2013-05-25 23:47:00,68.5,29.3,29.90,WNW,299,0.0,0.0,23,0.00,,SCT200,0.00,VWS V13.01,2013-05-26 05:47:00,
2013-05-25 23:52:00,68.2,29.0,29.90,WNW,299,0.0,0.0,23,0.00,,SCT200,0.00,VWS V13.01,2013-05-26 05:52:00,
2013-05-25 23:57:00,67.8,28.7,29.90,WNW,299,0.0,0.0,23,0.00,,SCT200,0.00,VWS V13.01,2013-05-26 05:57:00,